Flag for Czech Republic Weather past 2 weeks in Prague, Czech Republic

Now
70 °F

Clear.


Feels Like: 70 °F
Forecast: 55 / 69 °F
Wind: 5 mph from Southwest

Location: Prague Ruzyne Airport

Current Time: Sep 1, 2015 at 6:08:00 AM

Latest Report: Sep 1, 2015 at 5:30 AM


Visibility: 10 mi

Pressure: 29.83 "Hg

Humidity: 69%

Dew point: 59 °F

Location of PragueLocation

Historic Weather in Prague — Graph

°F

Prague temperature yesterday

Maximum temperature yesterday: 90 °F (at 2:30 PM)
Minimum temperature yesterday: 64 °F (at 5:30 AM)
Average temperature yesterday: 78 °F

Past Weeks' High & Low Weather Summary

 TemperatureHumidityPressure
High90 °F (Aug 31, 2:30 PM)100% (Aug 17, 10:00 AM)30.27 "Hg (Aug 17, 10:00 AM)
Low50 °F (Aug 23, 5:00 AM)26% (Aug 26, 5:00 PM)29.77 "Hg (Aug 24, 5:30 PM)
Average67 °F68%30.04 "Hg
* Reported Aug 17 5:00 AM — Sep 1 5:00 AM, Prague, Weather by CustomWeather, © 2015

Note: Actual official high and low records may vary slightly from our data, if they occured in-between our weather recording intervals... More about our weather records

Advertising

Prague weather history for previous 24 hours

 ConditionsComfort  
Time TempWeatherWind HumidityBarometerVisibility
5:00 AM
Tue, Sep 1
72 °FClear.6 mph65%29.83 "Hg10 mi
4:30 AM72 °FClear.6 mph65%29.83 "Hg10 mi
4:00 AM73 °FClear.5 mph61%29.83 "Hg10 mi
3:30 AM72 °FClear.6 mph65%29.83 "Hg10 mi
3:00 AM72 °FClear.6 mph65%29.83 "Hg10 mi
2:30 AM73 °FClear.6 mph61%29.83 "Hg10 mi
2:00 AM72 °FClear.10 mph69%29.83 "Hg10 mi
1:30 AM73 °FClear.12 mph65%29.83 "Hg10 mi
12:30 AM75 °FClear.8 mph57%29.83 "Hg10 mi
11:00 PM
Mon, Aug 31
79 °FClear.7 mph51%29.86 "Hg10 mi
10:30 PM81 °FClear.7 mph51%29.86 "Hg10 mi
10:00 PM77 °FClear.9 mph57%29.86 "Hg10 mi
9:30 PM81 °FClear.9 mph54%29.86 "Hg10 mi
9:00 PM81 °FClear.7 mph54%29.86 "Hg10 mi
8:30 PM81 °FSunny.6 mph51%29.86 "Hg10 mi
8:00 PM82 °FSunny.6 mph48%29.86 "Hg10 mi
7:30 PM84 °FSunny.6 mph48%29.86 "Hg10 mi
7:00 PM84 °FSunny.7 mph51%29.86 "Hg10 mi
6:30 PM86 °FSunny.8 mph49%29.86 "Hg10 mi
6:00 PM88 °FPassing clouds.8 mph46%29.86 "HgN/A
5:30 PM88 °FSunny.10 mph43%29.86 "Hg10 mi
5:00 PM90 °FPassing clouds.7 mph41%29.89 "HgN/A
4:30 PM90 °FPassing clouds.7 mph43%29.89 "HgN/A
4:00 PM90 °FPassing clouds.7 mph41%29.89 "HgN/A
3:30 PM90 °FSunny.7 mph43%29.92 "Hg10 mi
3:00 PM90 °FPassing clouds.6 mph41%29.95 "HgN/A
2:30 PM90 °FPassing clouds.6 mph41%29.95 "HgN/A
2:00 PM88 °FPassing clouds.3 mph46%29.95 "HgN/A
1:30 PM88 °FPassing clouds.3 mph43%29.95 "HgN/A
1:00 PM86 °FSunny.2 mph46%29.98 "Hg10 mi
12:30 PM86 °FPassing clouds.6 mph49%29.98 "HgN/A
12:00 PM84 °FPassing clouds.3 mph51%29.98 "HgN/A
11:30 AM82 °FPassing clouds.5 mph51%29.98 "HgN/A
11:00 AM81 °FPassing clouds.5 mph58%29.98 "HgN/A
10:30 AM79 °FSunny.1 mph61%29.98 "Hg10 mi
10:00 AM77 °FSunny.2 mph65%30.01 "Hg10 mi
9:30 AM73 °FSunny.2 mph69%30.01 "Hg10 mi
9:00 AM72 °FPassing clouds.3 mph73%30.01 "HgN/A
8:30 AM72 °FSunny.1 mph73%30.01 "Hg10 mi
8:00 AM70 °FSunny.1 mph73%30.01 "Hg10 mi
7:30 AM68 °FSunny.2 mph78%30.01 "Hg10 mi
7:00 AM66 °FClear.2 mph83%30.01 "Hg10 mi
6:30 AM66 °FClear.2 mph83%30.01 "Hg10 mi
6:00 AM66 °FClear.No wind83%30.01 "Hg10 mi
Weather by CustomWeather, © 2015

See weather overviewHow to use our weather pages